Location: Krasnoyarskiy
(51.1133°N, 71.6497°E)
Time: 22:51:17
(UTC+00:00)

Cosmos 2369 - Pass Details

Date: 27 September 2022
Orbit: 840 x 854 km, 71.0° (Epoch: 03 December)

Event Time Altitude Azimuth Distance (km) Brightness Sun altitude
Rises 00:08:16 0° 328° (NNW) 3,423 6.6 -10.0°
Reaches altitude 10° 00:10:45 10° 325° (NW) 2,481 5.9 -9.6°
Maximum altitude 00:16:21 62° 246° (WSW) 951 3.7 -8.7°
Drops below altitude 10° 00:21:54 10° 167° (SSE) 2,456 6.2 -7.9°
Sets 00:24:21 0° 164° (SSE) 3,385 7.0 -7.5°
